Location: Beresie Ma?e
(51.2527°N, 18.9549°E)
Time: 00:11:12
(UTC+00:00)

Daily predictions for brighter satellites

Satellite Brightness Start Highest point End
(mag) Time Altitude Azimuth Time Altitude Azimuth Time Altitude Azimuth
SL-4 R/B 1.9 00:01:38 10° W 00:05:41 83° N 00:09:33 10° E
Resurs 1-4 Rocket 3.9 00:03:48 10° NE 00:07:57 23° E 00:12:04 10° SE
Cosmos 2082 Rocket 3.1 00:03:39 10° NNW 00:09:14 52° NE 00:14:48 10° SE
Timation 2 Rocket 4.0 00:08:50 18° SSW 00:13:17 68° ESE 00:19:15 10° NE
Cosmos 2278 Rocket 2.9 00:11:06 15° S 00:15:24 44° ESE 00:20:45 10° NE
CZ-2C R/B 3.0 00:14:32 18° SSW 00:18:09 46° W 00:23:17 10° NNW
SJ 16-02 2.8 00:15:31 11° WSW 00:19:06 29° NW 00:22:55 10° N
USA 229 DEB 4.0 00:13:20 10° NW 00:20:41 70° SW 00:28:44 10° SSE
USA 229 4.0 00:13:27 10° NW 00:20:47 71° SW 00:28:50 10° SSE
Cosmos 2151 Rocket 3.9 00:17:12 10° NNW 00:21:31 53° W 00:24:39 18° SSW
Cosmos 1943 Rocket 2.9 00:17:38 14° S 00:21:57 43° ESE 00:27:08 10° NE
CZ-2D R/B 3.7 00:17:31 10° NE 00:22:09 28° E 00:26:41 10° SSE
Cosmos 371 Rocket 3.7 00:19:30 16° SW 00:23:13 56° WNW 00:28:00 10° NNE
Okean 2 Rocket 3.2 00:20:03 10° NNW 00:24:29 60° W 00:27:51 17° S
Meteor 1-21 Rocket 4.4 00:19:49 17° SSW 00:24:31 81° WNW 00:30:24 10° N
USA 307 3.0 00:22:03 10° W 00:25:56 65° NNW 00:29:50 10° ENE
ALOS 4.5 00:24:20 10° NE 00:27:33 18° E 00:30:43 10° SE
Cosmos 1741 Rocket 4.5 00:26:35 15° SW 00:30:53 55° WNW 00:36:09 10° NNE
Okean 1 Rocket 3.2 00:30:13 10° NNW 00:34:38 62° W 00:38:19 14° S
Cosmos 1025 Rocket 3.0 00:37:03 16° SSW 00:40:22 79° W 00:44:39 10° N
SL-19 R/B 4.4 00:36:49 10° NNE 00:42:26 75° WNW 00:47:17 14° SSW
USA 234 3.4 00:36:44 10° ENE 00:43:16 83° NNW 00:49:50 10° WSW
Nadezhda 4 Rocket 4.2 00:38:07 15° SSW 00:43:19 62° WNW 00:49:34 10° N
Cosmos 1378 Rocket 4.5 00:40:25 15° SW 00:43:41 37° WNW 00:47:47 10° N
USA 81 4.1 00:40:40 14° S 00:45:17 80° W 00:50:35 10° N
Cosmos 1092 Rocket 4.1 00:41:31 11° S 00:47:35 80° E 00:53:56 10° NNE
Cosmos 1570 Rocket 4.1 00:43:15 10° NNW 00:48:39 87° ENE 00:53:59 10° SSE
Meteor 2-1 Rocket 4.4 00:43:29 10° NNW 00:49:26 76° W 00:55:22 10° S
Cosmos 1340 Rocket 3.9 00:46:23 10° NW 00:49:40 27° W 00:52:07 15° SW
Cosmos 2195 Rocket 4.5 00:47:11 13° SSW 00:52:45 77° W 00:58:54 10° N
ADEOS II 3.4 00:48:34 10° NNE 00:53:21 35° E 00:58:07 10° SSE
Cosmos 158 Rocket 4.2 00:50:01 10° NW 00:54:53 47° WSW 00:59:37 10° S
Cosmos 2208 Rocket 4.2 00:51:14 10° NNW 00:56:25 77° ENE 01:01:36 10° SSE
Cosmos 292 Rocket 4.4 00:51:55 10° S 00:56:29 50° ESE 01:01:07 10° NNE
Cosmos 1975 Rocket 3.7 00:52:38 10° S 00:56:58 55° E 01:01:19 10° NNE
Cosmos 773 Rocket 4.4 00:55:29 10° NNW 01:00:41 68° ENE 01:05:53 10° SSE
ATLAS 3B R/B 3.5 00:56:19 10° NW 01:03:21 37° WSW 01:10:08 10° S
MOZ.5/SAFIR/RUBIN 5/SL-8 4.1 01:03:08 10° S 01:07:32 46° W 01:11:59 10° NNW
Timation 1 Rocket 4.3 01:01:50 10° NW 01:07:50 71° WSW 01:13:48 10° SSE
FENGYUN 3A 3.7 01:05:11 10° NNE 01:10:36 88° ESE 01:15:59 10° SSW
Cosmos 2026 Rocket 4.1 01:06:31 10° SSW 01:12:41 67° WNW 01:18:54 10° N
H-2A R/B 1.9 01:09:14 10° NNE 01:13:14 73° WNW 01:17:10 10° SSW
Cosmos 1515 2.7 01:11:23 10° NNW 01:14:07 78° W 01:16:48 10° S
IDEFIX/ARIANE 42P 3.0 01:11:55 10° N 01:17:01 53° WNW 01:22:05 10° SW
SAR-Lupe-3 4.0 01:14:49 10° SSE 01:17:44 89° E 01:20:41 10° NNW
USA 305 0.9 01:17:18 10° WNW 01:19:13 34° SW 01:20:24 10° SE
Cosmos 1455 Rocket 3.5 01:16:36 10° NNW 01:20:46 44° W 01:24:52 10° SSW
ATLAS 2AS CENTAUR R/B 3.7 01:15:22 10° W 01:22:02 43° NNW 01:28:32 10° NE
Cosmos 1833 Rocket 4.4 01:19:07 10° WNW 01:22:13 15° W 01:25:17 10° SW
Cosmos 220 Rocket 3.9 01:18:17 10° NNW 01:22:23 62° WSW 01:26:30 10° S
Envisat 3.9 01:17:46 10° NNE 01:22:41 47° E 01:27:33 10° S
Cosmos 1812 3.4 01:25:08 10° NNW 01:27:51 26° W 01:30:33 10° SSW
MSX 4.3 01:22:55 10° N 01:28:28 51° WNW 01:33:58 10° SW
H-2A R/B 4.0 01:26:08 10° NE 01:30:35 26° E 01:34:55 10° SSE
NPP 4.2 01:27:11 10° N 01:32:23 49° WNW 01:37:33 10° SW
ATLAS 5 CENTAUR R/B 2.0 01:35:04 10° S 01:37:52 32° SE 01:40:54 10° ENE
Cosmos 2228 3.0 01:37:57 10° NNW 01:42:02 61° W 01:46:05 10° S
SL-4 R/B 1.8 01:39:46 10° W 01:43:41 65° SSW 01:47:22 10° ESE
COSMOS 2406 3.3 01:38:12 10° NW 01:43:51 60° WSW 01:49:28 10° SSE
